Temp
-5 -4 -3 -2 -2 -2 -1 -0 0 2 3 3 4 5 6 6 6 6 7 8 8 8 9 9 9 9 9 8 8 9 8 9 9 8 8 8 8 8 8 7 8 8 7 8 8
-4 -4 -3 -3 -3 -1 -1 -1 -0 2 3 3 4 5 5 6 6 6 6 7 8 8 8 8 8 8 8 8 8 8 8 8 8 8 8 8 8 8 8 8 8 7 8 8 8
-3 -3 -3 -1 -3 -1 -1 -0 0 1 3 3 4 4 5 5 6 6 6 7 7 8 8 8 8 8 8 8 8 8 8 8 8 8 8 8 8 8 8 8 7 7 8 8 8
-2 -2 -3 -2 -3 -2 -2 -0 0 1 2 3 3 4 4 5 5 5 6 6 7 7 7 7 8 8 8 8 8 8 8 8 8 8 8 8 8 8 8 8 8 8 8 8 8
-3 -2 -2 -1 -2 -2 -1 -1 0 1 2 3 3 3 4 5 5 5 6 6 6 6 7 7 7 7 7 7 7 7 7 7 8 8 8 8 8 8 9 8 8 8 8 8 7
-2 -2 -2 -2 -1 -2 -1 -1 0 1 1 2 3 3 4 5 5 5 5 6 6 6 6 6 7 7 7 7 7 7 7 7 8 8 8 8 8 8 8 8 8 8 8 7 7
-1 -1 -2 -2 -2 -1 -1 -0 -0 0 1 2 2 3 3 4 4 5 5 5 6 6 6 6 6 7 7 7 7 7 7 7 8 8 8 8 8 8 8 8 8 7 7 7 7
-2 -2 -2 -2 -1 -1 -0 -0 -0 0 1 2 2 3 4 4 4 5 5 5 6 6 6 6 6 7 7 7 7 7 7 7 8 7 7 7 8 8 7 7 7 7 7 7 7
-2 -2 -2 -1 -1 -1 -0 -0 0 1 1 2 3 3 4 4 4 5 5 5 6 6 6 6 6 7 7 7 7 7 6 7 6 7 6 6 8 7 6 7 8 7 7 7 6
-2 -2 -1 -1 -1 -0 -0 0 1 1 2 2 3 4 4 4 4 5 5 5 6 6 6 6 6 6 6 6 6 6 6 6 6 6 6 6 7 7 6 7 7 7 7 7 7
-2 -2 -2 -1 -1 -1 0 1 2 2 3 3 4 4 4 4 5 5 5 5 5 6 6 6 6 6 6 6 6 5 5 5 5 5 5 6 7 7 7 7 8 7 7 7 6
-2 -2 -1 -1 -0 0 1 2 2 3 4 4 4 4 4 4 4 4 5 5 5 5 5 5 5 5 5 5 5 5 4 4 4 4 4 6 8 8 8 7 7 7 7 7 6
-1 -1 -1 -0 0 0 1 2 2 3 3 2 3 3 3 4 4 4 4 5 5 5 5 5 5 5 5 4 4 4 4 3 3 4 5 5 7 8 8 7 7 7 7 6 6
-0 0 0 1 1 1 1 2 2 3 3 2 2 3 3 3 4 4 4 4 4 4 5 4 4 4 4 4 4 3 3 3 3 2 2 3 6 7 7 7 7 7 6 7 6
1 1 1 1 1 1 2 2 3 3 2 2 2 2 3 3 3 3 4 4 4 4 4 4 4 3 3 3 3 3 3 3 3 2 1 1 1 7 8 7 7 6 6 6 6
1 2 2 2 2 2 2 3 3 3 1 2 2 3 3 3 3 3 4 4 4 4 4 4 3 3 3 3 3 3 3 3 2 1 0 1 1 7 7 7 7 6 6 6 5
2 2 2 2 3 3 3 3 3 3 2 2 2 3 3 3 3 3 3 3 3 3 3 3 3 3 3 3 3 2 2 2 2 2 4 1 1 7 7 7 7 6 6 5 5
2 3 3 3 3 3 3 3 3 2 2 3 3 3 3 3 3 3 3 3 3 3 3 3 3 3 3 2 2 2 2 1 3 4 4 1 1 7 7 7 6 6 5 4 4
3 3 3 4 4 4 4 3 3 3 3 3 2 2 3 3 3 3 3 3 3 3 3 3 2 2 2 2 1 1 1 1 0 -1 -1 2 5 7 8 7 6 5 5 4 3
4 4 4 4 4 4 4 4 4 3 3 3 3 3 3 3 3 3 3 2 2 2 2 2 1 2 2 2 2 1 1 -0 0 2 4 5 4 7 7 7 6 4 3 2 2
4 4 4 4 4 5 5 4 4 3 3 3 3 3 3 3 2 2 2 2 2 2 2 2 1 2 1 2 1 1 1 1 0 -0 3 4 6 6 6 5 4 3 2 3 4
4 4 4 4 4 5 4 4 4 3 3 3 3 3 3 3 2 2 2 2 2 2 2 2 1 1 2 2 1 1 0 0 -0 0 -2 -1 4 6 6 5 3 2 3 3 3
3 4 4 4 4 4 4 4 3 3 3 3 3 3 3 2 2 2 2 2 2 1 1 1 1 1 1 1 2 1 2 1 0 -1 -2 1 5 6 5 4 3 1 1 2 2
3 3 3 3 3 3 3 3 3 3 3 3 2 2 2 2 2 2 2 1 1 1 1 0 1 1 2 2 1 0 1 0 -1 -2 -0 -0 2 4 3 2 2 2 1 1 1
2 2 2 2 2 2 2 2 2 2 2 2 2 2 2 2 1 1 1 1 1 1 0 -1 -1 1 1 1 1 1 1 -0 -1 -0 -2 3 2 3 2 0 0 0 0 1 1
1 2 1 1 1 1 1 2 2 2 2 2 1 1 1 1 1 1 1 0 0 0 -0 -1 -1 -1 -0 1 1 2 2 1 1 -0 -2 2 3 1 1 -1 -1 -1 -0 -0 1
0 0 1 1 0 0 0 0 0 1 1 1 1 1 0 0 0 0 -0 0 -0 -1 -1 -2 -3 -3 -2 -1 -1 2 3 3 3 3 1 -0 1 0 -1 -1 -1 -0 -0 1 1
Height
3019 3029 3038 3046 3053 3059 3062 3069 3077 3082 3088 3095 3101 3106 3111 3118 3122 3128 3133 3139 3141 3145 3148 3151 3153 3155 3158 3160 3162 3164 3166 3166 3166 3167 3167 3168 3168 3168 3168 3167 3167 3167 3166 3165 3163
3027 3035 3041 3047 3050 3058 3061 3069 3077 3083 3089 3097 3102 3107 3111 3118 3124 3128 3134 3137 3140 3144 3148 3150 3153 3155 3157 3159 3162 3163 3165 3165 3165 3165 3165 3166 3166 3165 3166 3165 3164 3163 3162 3160 3159
3035 3042 3044 3047 3050 3059 3061 3070 3079 3084 3091 3099 3104 3109 3113 3119 3125 3130 3133 3137 3140 3144 3147 3150 3153 3155 3157 3159 3161 3162 3163 3163 3163 3163 3164 3164 3164 3163 3162 3162 3161 3160 3158 3156 3155
3042 3047 3048 3056 3056 3061 3067 3076 3083 3086 3093 3101 3106 3111 3115 3120 3128 3131 3133 3137 3141 3144 3147 3150 3153 3155 3156 3158 3160 3161 3161 3162 3162 3162 3162 3162 3161 3160 3160 3160 3157 3156 3154 3152 3150
3046 3050 3055 3060 3061 3065 3074 3081 3085 3088 3097 3104 3109 3114 3117 3122 3127 3131 3134 3138 3141 3144 3147 3150 3152 3154 3155 3157 3159 3159 3160 3160 3160 3160 3160 3160 3158 3157 3156 3155 3153 3151 3149 3148 3146
3053 3057 3063 3067 3070 3076 3082 3088 3090 3094 3101 3107 3112 3117 3121 3125 3129 3132 3135 3139 3142 3146 3148 3150 3152 3153 3155 3156 3158 3159 3159 3159 3158 3158 3157 3156 3155 3152 3152 3150 3148 3145 3144 3143 3141
3062 3066 3069 3074 3078 3083 3088 3093 3095 3100 3106 3112 3115 3119 3121 3126 3130 3133 3136 3139 3143 3145 3147 3150 3151 3153 3154 3156 3157 3157 3158 3156 3156 3155 3153 3152 3151 3148 3146 3145 3143 3140 3139 3138 3137
3071 3075 3079 3083 3084 3090 3095 3098 3101 3106 3111 3116 3119 3122 3124 3128 3132 3134 3138 3141 3143 3145 3148 3149 3151 3152 3154 3155 3156 3156 3156 3154 3152 3151 3150 3149 3146 3143 3141 3140 3137 3136 3135 3134 3133
3082 3086 3087 3092 3093 3098 3102 3103 3107 3112 3115 3119 3123 3126 3129 3131 3134 3136 3139 3141 3143 3146 3148 3149 3151 3152 3154 3154 3154 3154 3153 3151 3150 3148 3146 3145 3141 3139 3137 3135 3135 3133 3131 3130 3130
3091 3093 3097 3099 3101 3105 3108 3109 3112 3117 3120 3123 3126 3131 3132 3134 3135 3137 3140 3142 3144 3146 3149 3150 3151 3151 3152 3152 3153 3151 3150 3148 3147 3145 3143 3140 3135 3136 3132 3130 3130 3128 3128 3128 3128
3099 3100 3102 3107 3110 3112 3114 3116 3121 3124 3124 3125 3128 3130 3132 3135 3136 3138 3140 3142 3144 3146 3147 3148 3150 3150 3150 3150 3149 3149 3148 3146 3145 3142 3138 3134 3130 3130 3127 3126 3126 3126 3126 3125 3125
3108 3108 3110 3111 3113 3115 3117 3119 3121 3125 3125 3127 3130 3132 3134 3135 3137 3138 3141 3143 3144 3145 3146 3149 3148 3148 3148 3148 3148 3147 3146 3145 3142 3139 3135 3130 3125 3124 3124 3124 3124 3124 3124 3123 3123
3113 3113 3115 3116 3116 3118 3120 3122 3123 3125 3126 3130 3132 3134 3136 3137 3138 3139 3141 3142 3143 3144 3145 3146 3148 3147 3147 3147 3147 3146 3145 3143 3141 3136 3132 3127 3121 3120 3120 3121 3122 3122 3122 3121 3121
3119 3118 3119 3120 3123 3122 3123 3125 3127 3128 3131 3135 3135 3136 3137 3137 3139 3140 3141 3143 3143 3144 3145 3146 3146 3146 3147 3146 3146 3145 3143 3140 3137 3135 3134 3130 3125 3117 3117 3119 3120 3120 3120 3119 3118
3125 3125 3125 3125 3125 3126 3128 3128 3129 3131 3133 3139 3137 3137 3138 3140 3141 3141 3142 3143 3143 3144 3147 3146 3145 3145 3146 3145 3144 3143 3140 3138 3134 3132 3130 3127 3128 3115 3115 3116 3118 3119 3118 3117 3116
3130 3129 3129 3129 3129 3129 3130 3130 3131 3134 3134 3137 3137 3137 3139 3139 3141 3141 3142 3143 3143 3144 3144 3144 3144 3144 3144 3143 3142 3140 3139 3135 3131 3131 3130 3126 3127 3114 3114 3115 3116 3117 3116 3115 3114
3130 3130 3129 3129 3129 3129 3129 3131 3133 3131 3136 3137 3137 3137 3139 3140 3141 3141 3142 3143 3143 3144 3143 3143 3143 3142 3142 3142 3141 3141 3139 3136 3133 3130 3126 3125 3124 3113 3113 3113 3115 3116 3115 3114 3112
3131 3130 3129 3128 3128 3128 3129 3131 3131 3132 3133 3135 3137 3138 3139 3140 3141 3141 3142 3142 3142 3142 3142 3141 3142 3141 3140 3141 3141 3140 3140 3139 3136 3129 3126 3122 3117 3113 3112 3113 3114 3114 3114 3112 3110
3133 3131 3130 3129 3129 3129 3131 3130 3130 3132 3134 3135 3137 3138 3139 3140 3141 3141 3141 3141 3141 3141 3142 3141 3140 3139 3139 3139 3141 3138 3138 3138 3136 3132 3130 3118 3113 3112 3109 3111 3113 3113 3112 3109 3106
3134 3133 3131 3131 3130 3130 3131 3129 3131 3133 3135 3137 3138 3139 3139 3140 3141 3140 3140 3140 3140 3141 3140 3141 3140 3138 3137 3137 3137 3136 3137 3137 3135 3132 3126 3117 3113 3111 3110 3110 3111 3111 3110 3106 3101
3135 3134 3133 3133 3132 3132 3132 3132 3133 3135 3136 3138 3138 3138 3139 3140 3140 3140 3140 3140 3139 3139 3139 3139 3139 3138 3136 3134 3134 3134 3134 3134 3134 3133 3130 3123 3112 3110 3110 3109 3109 3108 3105 3100 3096
3135 3135 3134 3134 3135 3133 3133 3133 3134 3135 3136 3136 3137 3137 3138 3138 3138 3138 3138 3139 3138 3138 3138 3137 3136 3135 3134 3132 3131 3131 3131 3132 3132 3132 3129 3128 3112 3107 3107 3107 3105 3102 3098 3095 3092
3135 3134 3134 3134 3134 3134 3134 3134 3134 3135 3136 3136 3136 3137 3137 3137 3138 3136 3136 3137 3137 3137 3137 3136 3135 3133 3130 3131 3129 3127 3127 3127 3127 3127 3123 3124 3110 3107 3107 3107 3103 3097 3095 3092 3088
3136 3135 3134 3133 3133 3134 3134 3134 3134 3134 3135 3135 3135 3135 3135 3136 3136 3136 3136 3136 3135 3135 3134 3134 3131 3131 3130 3128 3126 3124 3123 3122 3123 3121 3115 3106 3103 3107 3106 3100 3096 3094 3091 3088 3084
3136 3135 3133 3132 3132 3132 3133 3133 3133 3134 3134 3134 3133 3134 3134 3134 3133 3133 3133 3132 3132 3131 3131 3130 3127 3126 3124 3123 3120 3116 3114 3114 3110 3109 3110 3099 3097 3099 3098 3094 3091 3087 3085 3082 3079
3136 3135 3133 3132 3131 3131 3130 3131 3131 3131 3132 3131 3132 3131 3131 3131 3131 3131 3131 3130 3129 3128 3127 3125 3123 3119 3114 3115 3111 3106 3105 3102 3101 3099 3097 3096 3090 3093 3092 3088 3085 3083 3080 3077 3075
3134 3133 3132 3131 3130 3130 3130 3129 3129 3129 3130 3129 3129 3129 3129 3129 3128 3127 3126 3125 3124 3123 3122 3122 3120 3117 3110 3108 3104 3097 3094 3094 3094 3093 3094 3092 3091 3089 3085 3081 3081 3077 3076 3073 3070
Wind_Speed
33 30 29 29 34 35 32 32 29 27 27 27 28 30 31 29 28 26 23 22 21 19 18 16 15 13 12 10 9 8 6 6 6 6 7 8 9 11 12 13 14 15 16 18 19
23 28 24 24 38 23 21 31 26 27 27 26 28 29 30 28 25 23 23 21 20 19 17 16 14 13 11 10 9 8 7 7 7 8 8 7 9 10 12 13 15 17 19 20 21
19 22 20 25 25 25 19 30 25 27 27 26 27 27 28 27 24 22 21 21 19 18 17 15 14 13 11 9 8 8 9 8 7 6 6 7 9 12 13 15 16 20 22 23 24
22 21 17 18 25 25 27 26 25 28 27 26 27 27 28 27 20 21 21 20 19 17 16 14 13 12 10 10 9 8 8 7 6 6 7 10 12 15 15 17 19 21 23 25 27
22 20 18 19 21 25 27 24 27 29 27 26 26 25 26 23 20 21 20 18 17 15 14 12 11 10 10 9 7 7 6 5 6 8 10 12 15 18 17 20 23 24 25 25 25
21 22 20 24 26 28 28 25 28 29 27 26 26 25 22 17 21 21 19 17 14 12 11 10 9 8 7 5 6 4 4 6 8 11 14 16 18 22 20 22 24 26 26 25 23
23 23 28 25 34 31 30 27 30 28 26 25 26 22 20 18 19 18 16 14 12 10 8 8 8 7 5 5 5 4 6 8 12 14 17 19 22 22 21 23 24 26 24 22 20
31 29 26 33 36 32 30 29 29 27 24 22 21 18 18 18 17 15 13 11 10 8 7 7 7 6 5 4 4 6 10 11 13 16 19 21 25 24 21 22 24 21 21 21 19
41 35 39 34 35 32 28 28 27 24 22 19 17 16 15 14 13 12 11 9 9 8 8 7 6 6 5 5 7 8 7 13 17 17 21 22 26 22 24 25 21 18 17 16 13
34 37 32 29 29 26 24 24 23 20 18 16 14 10 11 12 11 12 11 11 10 10 9 8 7 6 6 6 4 8 11 15 17 19 22 25 27 19 20 21 15 12 11 9 10
25 24 29 19 19 21 20 20 19 18 13 11 11 9 12 12 12 12 12 12 11 10 9 8 7 6 7 7 8 10 12 15 18 22 23 24 25 15 17 11 6 6 6 7 5
20 19 15 19 17 17 17 18 14 16 17 15 16 13 13 12 12 11 11 10 9 8 7 6 6 5 5 6 7 9 12 15 15 17 23 23 22 14 10 7 5 5 6 5 5
18 18 19 15 20 17 16 14 16 18 18 17 13 12 11 11 10 9 8 8 8 7 6 5 3 4 4 5 7 9 11 12 17 22 22 19 16 6 9 9 6 5 5 6 8
25 23 19 19 16 15 16 15 18 14 9 10 9 8 9 8 7 7 6 5 5 4 4 3 3 3 5 6 7 10 10 15 20 19 8 16 8 12 9 10 8 4 4 6 8
18 18 18 19 19 18 16 14 9 6 3 6 6 7 7 3 8 5 5 3 4 4 4 4 4 5 6 7 8 9 14 18 22 21 13 7 5 6 6 11 11 5 6 6 7
11 11 9 8 9 10 7 7 4 1 3 6 6 7 6 6 5 6 4 4 4 4 4 5 5 6 7 8 10 12 14 21 13 8 3 4 2 7 5 10 10 8 7 7 8
6 6 4 2 4 6 7 6 3 1 10 9 9 9 7 6 5 4 3 2 1 1 4 5 8 9 9 9 9 8 12 5 3 2 2 4 8 7 6 6 8 8 7 7 8
8 8 8 9 6 7 9 7 2 11 7 10 10 8 6 6 4 3 2 2 2 2 4 3 3 5 5 5 6 8 4 1 4 3 5 13 8 1 3 8 7 6 6 8 13
10 10 11 10 9 8 8 3 5 10 13 11 10 7 6 4 3 2 4 4 3 2 1 2 4 7 9 9 6 3 3 5 4 5 5 5 7 4 3 7 8 5 7 11 18
9 8 10 11 11 8 7 8 10 12 12 11 4 5 5 4 3 3 4 5 4 4 2 2 4 6 7 7 8 8 5 2 2 3 4 5 9 1 3 7 5 6 11 17 27
7 5 6 7 7 7 7 11 11 10 8 5 4 4 4 3 3 3 4 3 4 3 6 7 4 4 6 5 6 6 5 3 3 3 3 4 5 5 5 6 4 6 25 29 30
7 4 2 2 3 3 5 7 8 8 6 4 4 3 4 2 3 3 4 4 4 6 8 5 5 6 8 9 10 10 10 8 4 3 6 3 12 5 5 9 5 33 33 28 25
10 6 3 2 0 1 3 5 4 5 4 3 3 3 4 3 2 3 5 5 5 7 3 6 4 6 4 5 6 10 8 10 13 14 13 5 6 3 2 8 28 29 14 12 14
12 6 5 3 1 1 2 3 4 5 4 5 4 5 5 5 5 4 5 6 8 10 10 10 11 10 9 11 15 19 23 21 18 11 13 25 27 25 25 31 26 17 13 14 16
12 6 6 5 3 3 3 3 4 5 6 6 5 5 5 5 7 9 8 9 9 11 13 13 16 19 21 22 24 30 31 30 34 35 20 26 31 32 23 15 10 11 15 19 20
12 10 7 3 4 3 2 3 5 5 6 6 7 8 8 7 9 13 15 14 13 14 13 16 16 20 32 23 18 25 27 31 32 34 35 30 31 12 13 12 11 15 22 28 28
13 9 7 5 4 4 4 4 3 5 6 6 6 9 10 10 12 13 16 17 19 20 20 21 18 15 11 16 27 20 3 5 9 12 14 18 13 15 14 16 17 23 31 34 36
Wind_Direction
156 166 171 178 185 175 183 180 174 178 176 177 173 169 170 179 179 176 178 181 181 184 185 186 186 190 191 195 201 210 217 229 243 242 259 263 261 263 266 272 278 283 286 288 291
143 158 162 169 192 162 171 163 166 168 166 166 166 168 166 174 175 172 174 178 178 183 185 182 186 189 195 198 205 211 217 235 246 257 257 255 262 271 277 283 290 291 290 291 294
124 142 157 171 174 153 147 159 156 152 152 157 160 163 160 165 168 169 169 173 176 178 182 181 184 188 193 197 204 220 234 247 247 243 254 263 270 276 282 291 289 289 292 293 295
117 134 148 159 193 132 137 137 144 138 143 151 155 157 154 156 154 162 160 165 168 171 174 176 182 189 195 209 222 233 235 230 244 261 273 281 284 286 290 290 287 286 288 290 292
127 133 132 162 149 130 127 129 134 130 138 148 151 150 148 150 152 150 152 156 159 164 169 178 191 202 209 220 220 221 229 246 265 280 286 288 290 290 295 286 288 288 286 286 288
122 117 128 155 134 119 120 124 121 124 134 142 143 142 139 146 147 146 147 154 156 168 173 188 204 209 209 199 209 219 248 275 288 290 290 291 290 289 296 291 289 287 287 291 291
106 122 138 117 112 115 114 118 116 120 130 137 137 135 128 146 146 146 149 154 159 172 177 189 191 191 187 197 222 248 274 286 287 288 289 294 289 292 292 290 286 283 289 290 291
115 106 116 110 106 109 112 112 111 117 124 128 134 129 126 142 146 149 155 159 162 168 170 172 177 181 192 213 250 274 283 284 291 291 293 294 293 296 294 288 282 290 292 289 291
109 106 108 107 106 109 110 110 111 117 121 122 127 122 127 123 138 153 155 158 159 165 169 169 178 186 206 237 265 269 268 285 291 293 292 290 289 297 295 287 292 288 282 281 287
101 103 102 104 107 110 111 110 113 114 114 112 119 119 135 135 137 147 154 156 157 160 164 174 188 207 226 246 258 271 285 289 295 294 293 293 294 299 292 293 294 278 270 277 293
97 95 102 108 104 102 106 108 112 112 111 116 120 122 134 138 143 147 151 155 160 168 176 188 207 223 245 260 273 288 296 298 300 300 300 300 301 301 284 292 273 251 272 286 291
88 96 96 125 132 124 120 125 125 124 126 124 127 135 135 142 148 152 157 161 170 178 191 203 224 243 268 285 295 300 306 304 305 307 308 307 308 296 277 258 251 254 271 260 268
80 94 104 104 137 139 135 135 136 138 123 121 127 136 141 143 149 159 167 177 186 199 207 221 230 248 271 291 300 302 307 303 308 312 310 318 315 291 264 231 244 262 264 251 281
86 88 96 108 109 128 124 129 129 126 104 119 127 131 142 146 141 158 164 168 170 175 185 213 223 250 273 279 293 305 305 308 311 319 306 313 294 295 254 229 233 264 276 270 282
84 85 91 99 107 114 126 130 129 110 90 139 125 137 142 148 149 157 170 173 181 187 198 228 240 248 258 278 295 297 313 314 309 307 308 299 278 275 237 224 224 260 278 280 293
84 76 78 110 129 135 149 167 167 143 101 150 151 147 151 149 165 160 165 170 188 213 232 245 243 252 273 292 306 314 319 312 308 304 266 260 291 289 244 225 221 250 282 300 300
23 9 20 149 185 194 177 165 159 132 154 150 152 152 154 151 143 148 150 164 208 252 246 266 268 271 278 292 303 311 324 318 306 308 299 265 287 240 243 215 218 254 268 294 313
44 51 72 88 127 151 152 153 137 142 149 148 149 149 153 152 150 156 176 210 244 271 281 257 288 254 253 252 274 301 326 316 287 307 312 287 237 249 275 233 235 249 289 321 326
49 64 71 73 86 105 127 124 122 143 148 150 150 152 161 174 179 218 238 235 237 240 306 263 263 243 248 255 260 268 289 295 266 295 286 256 293 14 344 218 218 259 294 312 313
38 54 61 64 66 79 108 115 136 141 145 147 153 177 190 199 210 231 231 209 220 218 295 251 276 249 251 262 263 254 288 320 305 318 296 286 294 237 163 159 189 271 309 304 302
30 34 51 61 64 78 98 116 132 142 152 166 174 172 188 203 236 255 221 226 238 255 314 306 261 261 266 244 246 260 265 241 257 228 288 310 288 249 258 190 141 335 320 312 315
10 9 16 38 47 85 114 129 143 154 162 166 173 185 196 224 279 265 233 241 250 282 302 282 279 262 259 266 263 259 248 232 225 223 230 263 278 276 225 196 259 326 319 316 318
10 17 2 342 12 115 147 155 171 180 189 204 213 222 227 261 282 243 241 261 257 284 276 297 278 305 282 275 254 251 258 258 255 257 232 229 260 245 239 284 310 320 313 323 329
6 10 1 2 357 257 233 238 221 211 228 239 239 244 265 268 267 265 269 281 280 283 280 287 272 247 260 280 286 277 280 275 258 242 260 244 270 272 287 303 295 279 286 310 319
4 356 354 335 327 303 277 250 237 257 265 268 267 265 273 285 293 282 279 287 291 285 282 283 276 281 280 283 284 283 278 271 263 263 255 269 286 303 312 319 316 281 284 295 301
345 350 347 335 324 315 302 279 274 269 267 270 269 281 286 285 273 285 289 289 286 284 277 277 279 291 295 297 283 286 284 279 271 266 261 286 295 333 321 292 257 286 311 314 312
332 336 341 329 316 306 288 273 270 292 290 284 290 292 289 286 285 283 287 284 278 275 273 273 277 294 286 304 309 297 85 350 315 302 295 281 311 305 290 261 270 293 312 316 317